This demonstration page uses our WeatherBlox Daily Observations layout. Learn more.

Left ArrowRight Arrow

Hourly Observations for December 19, 2019

Temp ( °F °C ) Dew Point ( °F °C ) Humidity (%) Winds ( mph kmh ) Pressure ( in mb ) Visibility ( mi km ) Precip ( " mm )
12:53 am 00:53 Mostly Cloudy 20 -6.7 14 -10 78 78 Calm 29.83 1010 10 16 0.00 0.00
1:53 am 01:53 Partly Cloudy 22 -5.6 16 -8.9 78 78 NE 3 6 29.83 1010 10 16 0.00 0.00
2:53 am 02:53 Mostly Clear 21 -6.1 17 -8.3 85 85 ESE 3 6 29.83 1010 10 16 0.00 0.00
3:53 am 03:53 Clear 17 -8.3 14 -10 88 88 NNW 7 11 29.85 1011 10 16 0.00 0.00
4:53 am 04:53 Clear 19 -7.2 11 -11.7 71 71 WNW 7 11 29.85 1011 10 16 0.00 0.00
5:53 am 05:53 Clear 18 -7.8 10 -12.2 71 71 W 9 15 29.86 1011 10 16 0.00 0.00
6:53 am 06:53 Clear 20 -6.7 11 -11.7 68 68 SW 20 31 29.86 1011 10 16 0.00 0.00
7:53 am 07:53 Clear 23 -5 13 -10.6 65 65 SW 12 19 29.87 1011 10 16 0.00 0.00
8:53 am 08:53 Sunny 22 -5.6 12 -11.1 66 66 WSW 3 6 29.89 1012 10 16 0.00 0.00
9:53 am 09:53 Sunny 26 -3.3 15 -9.4 63 63 W 8 13 29.91 1013 10 16 0.00 0.00
10:53 am 10:53 Sunny 30 -1.1 17 -8.3 58 58 WSW 10 17 29.91 1013 10 16 0.00 0.00
11:53 am 11:53 Sunny 36 2.2 20 -6.7 52 52 SW 22 35 29.89 1012 10 16 0.00 0.00
12:53 pm 12:53 Sunny 35 1.7 23 -5 61 61 WSW 10 17 29.88 1012 10 16 0.00 0.00
1:53 pm 13:53 Sunny 35 1.7 24 -4.4 64 64 SW 13 20 29.88 1012 10 16 0.00 0.00
2:53 pm 14:53 Sunny 37 2.8 26 -3.3 65 65 SW 13 20 29.89 1012 10 16 0.00 0.00
3:53 pm 15:53 Sunny 33 0.6 25 -3.9 72 72 SW 7 11 29.92 1013 10 16 0.00 0.00
4:53 pm 16:53 Mostly Clear 29 -1.7 22 -5.6 75 75 WSW 9 15 29.97 1015 10 16 0.00 0.00
5:53 pm 17:53 Partly Cloudy 29 -1.7 22 -5.6 75 75 SSW 15 24 29.97 1015 10 16 0.00 0.00
6:53 pm 18:53 Clear 28 -2.2 21 -6.1 75 75 SSW 12 19 29.98 1015 10 16 0.00 0.00
7:53 pm 19:53 Clear 29 -1.7 22 -5.6 75 75 WSW 5 7 29.98 1015 10 16 0.00 0.00
8:53 pm 20:53 Clear 22 -5.6 19 -7.2 89 89 WSW 7 11 30.00 1016 10 16 0.00 0.00
9:53 pm 21:53 Clear 23 -5 18 -7.8 81 81 Calm 29.98 1015 10 16 0.00 0.00
10:53 pm 22:53 Clear 25 -3.9 20 -6.7 81 81 NE 3 6 29.96 1015 10 16 0.00 0.00
11:53 pm 23:53 Clear 19 -7.2 14 -10 81 81 ENE 7 11 29.94 1014 10 16 0.00 0.00

Powered by AerisWeather